Starlink 30378

operational
NORAD ID: 57787 Int'l Des: 2023-134 Owner: SPXS Country: US Constellation: starlink
LEOCIRCULAR

Starlink 30378について

説明を読み込み中...

リアルタイム位置

3D地球を読み込み中...

次回通過

高度履歴

Altitude vs Time

uPlot chart will show altitude changes over time

軌道要素

1 57787U 23134S 25305.90443370 .00000440 00000-0 47616-4 0 9998
2 57787 43.0015 171.4583 0001080 272.4718 87.6000 15.02535687120251
Epoch: Nov 1, 2025 • Age: 40 hours

現在のステータス

高度 561.7 km
速度 7.59 km/s
衛星直下点 37.98°N, 32.5°W
打ち上げ日 Sep 4, 2023
運用期間 2.1 years
タイプ internet

技術仕様

分類 Payload
質量 730.00 kg
乾燥質量 700.00 kg
総質量 730.00 kg
長さ 0.30 m
直径 4.10 m
スパン 29.00 m
形状 Box + pan
製造者 SPXS
バスタイプ Starlink V2M
フェーズステータス In Orbit
所有者/国 SPXS/US

大規模コンステレーション

Loading constellations...